Regional Weather Roundup
Issued by NWS

Home | Current Version | Previous Version | Graphics & Text | Print | Product List | Glossary On
Versions: 1 2 3 4 5 6 7 8 9 10 11 12 13 14 15 16 17 18 19 20 21 22 23 24 25 26 27 28 29 30 31 32 33 34 35 36 37 38 39 40 41 42 43 44 45 46 47 48 49 50
000
ASUS43 KOAX 310402
RWRNE

WEATHER ROUNDUP FOR NEBRASKA
NATIONAL WEATHER SERVICE OMAHA NE
1100 PM CDT WED JUL 30 2014

NOTES: SATELLITE DATA IS BEING USED TO AUGMENT CLOUD COVER ABOVE
       12000 FEET.
       "FAIR" INDICATES FEW OR NO CLOUDS BELOW 12,000 FEET WITH NO
       SIGNIFICANT WEATHER AND/OR OBSTRUCTIONS TO VISIBILITY.

  * THESE STATIONS DO NOT REPORT WEATHER SUCH AS RAIN...SNOW OR FOG.

NEZ001>004-019>022-054>056-310500-
NEBRASKA PANHANDLE

CITY           SKY/WX    TMP DP  RH WIND       PRES   REMARKS
SCOTTSBLUFF    MOCLDY    67  58  72 SW3       30.23R
ALLIANCE       MOCLDY    62  55  77 SW8       30.22R
CHADRON        CLOUDY    68  49  50 VRB3      30.16R
KIMBALL        CLOUDY    60  58  91 W9        30.30R
SIDNEY         CLOUDY    61  58  90 W8        30.28S
$$

NEZ057>060-069>072-079>082-310500-
SOUTHWEST NEBRASKA

CITY           SKY/WX    TMP DP  RH WIND       PRES   REMARKS
NORTH PLATTE   PTCLDY    61  55  81 CALM      30.18R
IMPERIAL       MOCLDY    65  59  81 W8        30.23R
LEXINGTON      MOCLDY    66  60  80 S3        30.17S
MCCOOK         MOCLDY    68  60  75 SW5       30.18R
OGALLALA       PTCLDY    59  57  91 W6        30.21S
$$

NEZ005>010-023>029-035>040-094-310500-
NORTH CENTRAL NEBRASKA

CITY           SKY/WX    TMP DP  RH WIND       PRES   REMARKS
VALENTINE      MOCLDY    70  52  52 SW9       30.11R
AINSWORTH      MOCLDY    65  54  67 S8        30.12S
BROKEN BOW     PTCLDY    59  56  89 N3        30.15S
O`NEILL        PTCLDY    67  59  75 SE6       30.14S
ORD            CLEAR     66  59  78 SE3       30.13R
THEDFORD       MOCLDY    70  53  55 S8        30.17S
$$

NEZ041-046>049-061>064-073>077-083>087-310500-
SOUTH CENTRAL NEBRASKA

CITY           SKY/WX    TMP DP  RH WIND       PRES   REMARKS
GRAND ISLAND   PTCLDY    66  58  75 S5        30.15R
AURORA         PTCLDY    63  59  88 CALM      30.15S
HASTINGS       PTCLDY    69  53  56 S5        30.15S
HEBRON         PTCLDY    59  53  79 CALM      30.14S
HOLDREGE       MOCLDY    66  57  72 CALM      30.16S
KEARNEY *      MOCLDY    64  57  77 S6        30.16S
YORK           PTCLDY    63  59  88 SW3       30.14S
$$

NEZ011>018-030>034-042>045-310500-
NORTHEAST NEBRASKA

CITY           SKY/WX    TMP DP  RH WIND       PRES   REMARKS
NORFOLK        PTCLDY    63  56  78 CALM      30.13R
ALBION         PTCLDY    61  58  90 CALM      30.14R
BLAIR          CLEAR     67  51  56 E5        30.11F
COLUMBUS *     MOCLDY    61  55  82 CALM      30.13R
FREMONT        PTCLDY    68  57  66 CALM      30.12S
TEKAMAH        CLEAR     61  54  77 CALM      30.11S
WAYNE          CLEAR     58  56  91 CALM      30.13R
$$

NEZ050>053-065>068-078-088>093-310500-
SOUTHEAST NEBRASKA

CITY           SKY/WX    TMP DP  RH WIND       PRES   REMARKS
LINCOLN        PTCLDY    67  55  65 CALM      30.12S
OMAHA EPPLEY   CLEAR     67  59  75 CALM      30.11S
BEATRICE       PTCLDY    63  57  82 CALM      30.13R
FALLS CITY     CLEAR     66  58  75 NW3       30.11R
NEBRASKA CITY  PTCLDY    66  55  66 CALM      30.12S
PLATTSMOUTH    PTCLDY    68  55  62 E3        30.12F
$$

NEZ044-045-051>053-067-310500-
OMAHA AREA

CITY           SKY/WX    TMP DP  RH WIND       PRES   REMARKS
OMAHA EPPLEY   CLEAR     67  59  75 CALM      30.11S
BLAIR          CLEAR     67  51  56 E5        30.11F
FREMONT        PTCLDY    68  57  66 CALM      30.12S
MILLARD        PTCLDY    65  57  75 CALM      30.11S
OFFUTT AFB     PTCLDY    59  59  99 CALM      30.11S
PLATTSMOUTH    PTCLDY    68  55  62 E3        30.12F
WAHOO          FAIR      63  58  81 CALM      30.11S
$$



USA.gov is the U.S. government's official web portal to all federal, state and local government web resources and services.